Preview of NWS' New Version of Forecast
This preview is not operational and should not be used for support decisions.
Latest weather observations around

Prattville - Grouby Field (K1A9)

Using International System of Units (Switch to English Units)
Date/ Time (CST) Wind (kph) Vis. (km) Weather Sky Cond. Temp (°C) Rel. Humidity Wind Chill (°C) Heat Index (°C) Pressure Precip. (cm)
Air Dwpt 6 hour Altimeter (hPa) Sea level (hPa) 1 hr 3 hr 6 hr
Max Min
Feb 25 17:15 Calm 16.09 Cloudy OVC075 16 16     100%     1020.3        
Feb 25 16:55 Calm 16.09 Drizzle OVC075 16 16     100%     1020   0    
Feb 25 16:35 NW 5 16.09 Light Rain SCT065 OVC075 16 16     100%     1020.3   0    
Feb 25 16:15 Calm 16.09 Rain SCT065 OVC075 16 16     97%     1020        
Feb 25 15:55 W 5 16.09 Rain OVC075 16 16     96%     1019.3        
Feb 25 15:35 Calm 16.09 Cloudy OVC075 16 16     97%     1019.3        
Feb 25 15:15 E 9 16.09 Light Drizzle SCT055 BKN075 OVC085 16 15     97%     1019        
Feb 25 14:55 Calm 16.09 Cloudy OVC075 16 15     97%     1019        
Feb 25 14:35 SSE 9 16.09 Cloudy BKN075 OVC085 16 15     95%     1019        
Feb 25 14:15 Calm 16.09 Cloudy SCT009 SCT065 OVC085 16 15     96%     1019.3        
Feb 25 13:55 SE 9 16.09 Cloudy OVC075 15 15     96%     1019        
Feb 25 13:35 E 9 16.09 Light Rain SCT006 OVC075 15 15     99%     1019        
Feb 25 13:15 SSE 9 16.09 Cloudy BKN006 BKN065 OVC075 15 15     99%     1019.3        
Feb 25 12:55 SSE 8 16.09 Cloudy BKN006 BKN060 OVC075 15 15     99%     1019.7        
Feb 25 12:35 ESE 13 16.09 Cloudy BKN006 BKN044 OVC075 15 15     99%     1019.7        
Feb 25 12:15 ESE 9 16.09 Cloudy BKN006 OVC065 15 14     99%     1020        
Feb 25 11:55 ESE 5 16.09 Cloudy BKN006 OVC070 15 14     97%     1021       0
Feb 25 11:35 Calm 16.09 Cloudy BKN008 OVC070 14 14     97%     1021.7        
Feb 25 11:15 Calm 16.09 Light Rain OVC008 14 13     96%     1022.4        
Feb 25 10:55 Calm 16.09 Cloudy BKN008 BKN022 OVC060 14 13     96%     1022.4        
Feb 25 10:35 Calm 16.09 Drizzle SCT008 BKN020 OVC070 14 13     99%     1022.7        
Feb 25 10:15 Calm 11.27 Drizzle SCT008 SCT015 OVC060 13 13     100%     1022.7        
Feb 25 09:55 WNW 5 16.09 Light Drizzle SCT008 BKN030 OVC060 13 13     100%     1022.4   0    
Feb 25 09:35 Calm 11.27 Drizzle SCT008 OVC060 13 13     100%     1022   0    
Feb 25 09:15 Calm 8.05 Drizzle SCT043 OVC050 13 13     100%     1021.3   0    
Feb 25 08:55 Calm 6.44 Heavy Drizzle SCT007 SCT031 OVC041 13 13     100%     1021.3   0 0  
Feb 25 08:35 NNW 11 6.44 Rain BKN007 BKN032 OVC039 13 13     100%     1021   0    
Feb 25 08:15 NW 17 4.83 Heavy Rain OVC007 14 14     100%     1020.7   0    
Feb 25 07:55 NW 21 4.83 Rain BKN009 BKN019 OVC028 14 14     100%     1019.3   0    
Feb 25 07:35 NW 24 11.27 Light Rain BKN011 OVC020 16 15     90%     1019        
Feb 25 07:15 Calm 11.27 Light Drizzle BKN013 BKN028 OVC055 20 20     98%     1017.6        
Feb 25 06:55 S 8 16.09 Light Rain SCT013 BKN065 OVC075 20 19     99%     1017.3        
Feb 25 06:35 S 5 16.09 Cloudy SCT030 BKN065 OVC080 19 19     100%     1017.3        
Feb 25 06:15 Calm 16.09 Cloudy SCT012 SCT028 OVC090 19 19     100%     1017.3        
Feb 25 05:55 S 5 16.09 Cloudy BKN014 BKN026 OVC100 19 19     100%     1016.9        
Feb 25 05:35 Calm 16.09 Cloudy BKN011 BKN018 OVC075 19 19     100%     1016.9        
Feb 25 05:15 Calm 16.09 Mostly Cloudy BKN013 BKN033 BKN042 19 19     100%     1016.9        
Feb 25 04:55 Calm 16.09 Cloudy BKN013 BKN020 OVC090 19 19     99%     1016.6        
Feb 25 04:35 S 5 16.09 Light Rain SCT015 BKN020 OVC031 20 19     97%     1016.6        
Feb 25 04:15 SSW 5 16.09 Cloudy BKN013 BKN018 OVC023 20 19     96%     1016.6        
Feb 25 03:55 Calm 16.09 Cloudy OVC013 20 19     95%     1016.3        
Feb 25 03:35 Calm 16.09 Cloudy OVC013 20 19     95%     1016.3        
Feb 25 03:15 Calm 16.09 Cloudy OVC013 20 19     95%     1016.6        
Feb 25 02:55 S 9 16.09 Cloudy OVC015 20 19     95%     1016.3        
Feb 25 02:35 S 8 16.09 Mostly Cloudy BKN015 BKN020 BKN027 20 19     95%     1016.9        
Feb 25 02:15 S 5 16.09 Partly Cloudy SCT044 SCT060 SCT090 19 19     96%     1016.9        
Feb 25 01:55 S 8 16.09 Mostly Cloudy SCT034 BKN041 BKN047 20 19     96%     1017.3        
Feb 25 01:35 Calm 16.09 Mostly Cloudy SCT014 BKN034 20 19     95%     1017.6        
Feb 25 01:15 S 5 16.09 Cloudy OVC014 20 19     94%     1017.6        
Feb 25 00:55 S 9 16.09 Cloudy OVC014 20 19     93%     1017.6        
Feb 25 00:35 S 9 16.09 Mostly Cloudy BKN014 BKN019 20 19     94%     1018        
Feb 25 00:15 S 8 16.09 Mostly Cloudy BKN016 20 18     93%     1017.6        
Feb 24 23:55 S 8 16.09 Mostly Cloudy BKN016 20 18     91%     1018        
Feb 24 23:35 S 9 16.09 Partly Cloudy SCT018 20 18     89%     1018        
Feb 24 23:15 S 9 16.09 Clear CLR 20 18     88%     1017.6        
Feb 24 22:55 S 9 16.09 Clear CLR 20 18     87%     1017.6        
Feb 24 22:35 S 11 16.09 Clear CLR 21 18     86%     1017.6        
Feb 24 22:15 S 15 16.09 Clear CLR 21 18     84%     1017.6        
Feb 24 21:55 S 9 16.09 Clear CLR 21 18     83%     1017.6        
Feb 24 21:35 S 13 16.09 Clear CLR 21 17     81%     1017.6        
Feb 24 21:15 S 13 16.09 Clear CLR 21 17     79%   21 1017.6        
Feb 24 20:55 S 13 16.09 Clear CLR 21 17     78%   22 1017.3        
Feb 24 20:35 S 15 16.09 Clear CLR 21 17     77%   22 1017.3        
Feb 24 20:15 S 11 16.09 Clear CLR 22 17     75%   22 1017.3        
Feb 24 19:55 S 13 16.09 Clear CLR 22 17     72%   22 1017.3        
Feb 24 19:35 S 13 16.09 Clear CLR 22 17     70%   22 1016.9        
Feb 24 19:15 S 13 16.09 Clear CLR 23 16     67%   23 1016.9        
Feb 24 18:55 S 9 16.09 Clear CLR 23 16     66%   23 1016.9        
Feb 24 18:35 S 15 16.09 Clear CLR 24 16     64%   24 1016.6        
Feb 24 18:15 S 11 16.09 Clear CLR 24 16     62%   24 1016.3        
Feb 24 17:55 S 22 16.09 Clear CLR 25 16     59%   25 1016.3        
Feb 24 17:35 S 18 16.09 Partly Cloudy SCT060 25 16     58%   25 1015.9        
Feb 24 17:15 S 18 16.09 Partly Cloudy SCT060 26 16     55%   26 1015.6        
Feb 24 16:55 S 17 16.09 Partly Cloudy SCT060 SCT065 27 15     48%   27 1015.6        
Feb 24 16:35 S 18 16.09 Partly Cloudy SCT060 27 15     46%   27 1015.6        
Feb 24 16:15 S 13 16.09 Partly Cloudy SCT060 SCT090 27 15     48%   28 1015.6        
Feb 24 15:55 SSW 9 16.09 Cloudy SCT060 SCT070 OVC090 27 16     52%   27 1015.9        
Feb 24 15:35 S 11 16.09 Cloudy SCT047 OVC060 26 16     54%   27 1015.9        
Feb 24 15:15 S 5 16.09 Cloudy BKN047 BKN060 OVC085 26 17     58%   26 1016.3        
Feb 24 14:55 S 17 16.09 Mostly Cloudy SCT047 SCT075 BKN080 26 17     57%   26 1016.6        
Feb 24 14:35 S 11 16.09 Cloudy SCT041 SCT048 OVC075 25 17     60%   25 1016.9        
Feb 24 14:15 S 9 16.09 Mostly Cloudy SCT045 SCT065 BKN075 25 17     60%   26 1016.9        
Feb 24 13:55 SSE 11 16.09 Mostly Cloudy SCT037 SCT045 BKN060 24 17     65%   25 1017.6        
Feb 24 13:35 SE 15 16.09 Mostly Cloudy SCT034 SCT040 BKN065 25 17     65%   25 1018        
Feb 24 13:15 SSE 18 16.09 Mostly Cloudy SCT032 SCT038 BKN065 26 18     62%   26 1018.3        
Feb 24 12:55 SSE 15 16.09 Mostly Cloudy SCT034 SCT046 BKN055 25 18     64%   25 1018.6        
Feb 24 12:35 SSE 13 16.09 Mostly Cloudy SCT033 BKN039 BKN047 25 18     64%   25 1019.3        
Feb 24 12:15 S 15 16.09 Mostly Cloudy SCT033 BKN040 BKN046 24 17     65%   25 1020        
Feb 24 11:55 S 15 16.09 Mostly Cloudy SCT030 BKN038 24 18     67%   24 1020.3        
Feb 24 11:35 S 15 16.09 Mostly Cloudy SCT026 BKN036 24 17     66%   24 1020.7        
Feb 24 11:15 SSW 15 16.09 Mostly Cloudy SCT024 BKN029 BKN035 24 18     70%   24 1021.3        
Feb 24 10:55 S 17 16.09 Cloudy SCT022 BKN028 OVC036 22 18     77%   23 1021.7        
Feb 24 10:35 S 13 16.09 Cloudy BKN020 OVC029 22 18     79%   22 1022        
Feb 24 10:15 S 11 16.09 Cloudy BKN016 OVC022 21 19     84%   22 1022        
Feb 24 09:55 SSE 15 16.09 Cloudy BKN016 OVC020 21 18     86%     1022.4        
Feb 24 09:35 S 13 16.09 Cloudy BKN011 OVC018 20 18     91%     1022.4        
Feb 24 09:15 SSE 5 16.09 Cloudy OVC009 19 18     93%     1022.4        
Feb 24 08:55 S 5 16.09 Cloudy OVC009 19 18     96%     1022.4        
Feb 24 08:35 SSE 8 11.27 Cloudy OVC009 19 18     97%              
Feb 24 08:15 SSE 5 16.09 Cloudy OVC007 18 18     98%              
Feb 24 07:55 SSW 8 16.09 Cloudy OVC007 18 18     100%              
Feb 24 07:35 SE 8 11.27 Cloudy OVC009 18 18     100%     1021.7        
Feb 24 07:15 Calm 11.27 Cloudy OVC005 17 17     100%     1021.7        
Feb 24 06:55 SSE 5 11.27 Cloudy OVC005 17 17     100%     1021.7        
Feb 24 06:35 Calm 16.09 Cloudy OVC007 17 17     100%     1021.7        
Feb 24 06:15 Calm 11.27 Cloudy OVC009 16 16     100%     1021.7        
Feb 24 05:55 Calm 11.27 Cloudy BKN009 OVC120 16 16     100%     1021.3        
Feb 24 05:35 Calm 11.27 Cloudy OVC009 16 16     100%     1021.3        
Feb 24 05:15 Calm 16.09 Cloudy OVC009 17 17     100%     1021.3        
Feb 24 04:55 SE 5 16.09 Cloudy OVC009 17 17     100%     1021        
Feb 24 04:35 Calm 16.09 Cloudy OVC009 16 16     100%     1021.3        
Feb 24 04:15 Calm 8.05 Fog/Mist BKN009 BKN120 16 16     100%     1021.3        
Feb 24 03:55 Calm 11.27 Partly Cloudy SCT120 16 16     100%     1021.3        
Feb 24 03:35 Calm 11.27 Partly Cloudy SCT120 16 16     100%     1021.7        
Feb 24 03:15 Calm 11.27 Cloudy OVC120 16 16     100%     1021.7        
Feb 24 02:55 Calm 11.27 Cloudy OVC120 15 15     100%     1021.7        
Feb 24 02:35 Calm 8.05 Fog/Mist OVC110 15 15     100%     1021.7        
Feb 24 02:15 Calm 1.61 Fog/Mist BKN009 OVC110 15 15     100%     1022        
Feb 24 01:55 Calm 0.4 Fog BKN009 BKN110 15 15     100%     1022.4        
Feb 24 01:35 Calm 0.8 Fog VV005 15 15     100%     1022.4        
Feb 24 01:15 Calm 8.05 Fog/Mist CLR 16 16     100%     1022.4        
Feb 24 00:55 NW 5 6.44 Fog/Mist SCT080 16 16     100%     1022.4        
Feb 24 00:35 Calm 2.01 Fog/Mist VV007 16 16     100%     1022.7        
Feb 24 00:15 Calm 1.21 Fog/Mist VV005 16 16     100%     1022.7        
Feb 23 23:55 Calm 1.61 Fog/Mist VV007 17 17     100%     1023       0
Feb 23 23:35 Calm 1.21 Fog/Mist VV005 17 17     100%     1023        
Feb 23 23:15 Calm 6.44 Fog/Mist CLR 17 17     100%     1023        
Feb 23 22:55 Calm 8.05 Fog/Mist CLR 17 17     100%     1023        
Feb 23 22:35 Calm 11.27 Clear CLR 17 17     100%     1023        
Feb 23 22:15 Calm 11.27 Clear CLR 18 18     100%     1023.4        
Feb 23 21:55 Calm 16.09 Clear CLR 19 18     98%     1023.7        
Feb 23 21:40 Calm 16.09 Clear CLR 18 18     100%     1023.7        
Feb 23 21:15 Calm 16.09 Partly Cloudy SCT050 18 18     100%     1023.7        
Feb 23 20:55 Calm 8.05 Fog/Mist CLR 19 19     100%     1023.7     0  
Feb 23 20:35 Calm 11.27 Partly Cloudy SCT044 19 19     100%     1023.4        
Feb 23 20:15 Calm 16.09 Mostly Cloudy SCT040 BKN046 BKN055 20 20     99%     1023.4        
Feb 23 19:55 Calm 16.09 Cloudy OVC040 20 20     100%     1023.4        
Feb 23 19:35 Calm 16.09 Cloudy OVC042 20 20     100%     1023.4        
Feb 23 19:15 Calm 16.09 Cloudy OVC044 20 20     100%     1023.4        
Feb 23 18:55 Calm 16.09 Light Rain BKN046 BKN055 OVC065 21 20     94%     1023   0    
Feb 23 18:35 SW 8 16.09 Light Rain BKN048 BKN065 OVC100 22 18     79%   22 1023        
Feb 23 18:15 Calm 16.09 Cloudy BKN050 OVC065 23 18     72%   23 1023        
Feb 23 17:55 Calm 16.09 Mostly Cloudy BKN050 24 18     67%   24 1023        
Feb 23 17:35 Calm 16.09 Clear CLR 25 17     62%   25 1023        
Feb 23 17:15 Calm 16.09 Clear CLR 26 18     60%   26 1023        
Feb 23 16:55 S 5 16.09 Partly Cloudy SCT095 27 17     57%   27 1023        
Feb 23 16:35 Calm 16.09 Cloudy SCT070 OVC095 27 17     56%   28 1023        
Feb 23 16:15 Calm 16.09 Cloudy SCT050 BKN075 OVC085 27 17     55%   28 1023        
Feb 23 15:55 SSE 5 16.09 Mostly Cloudy SCT046 SCT050 BKN100 26 17     59%   26 1023        
Feb 23 15:35 S 8 16.09 Mostly Cloudy SCT046 BKN050 BKN070 26 17     57%   26 1023        
Feb 23 15:15 SE 8 16.09 Cloudy SCT048 BKN055 OVC070 26 17     56%   27 1023.4        
Feb 23 14:55 SE 8 16.09 Cloudy BKN048 OVC060 26 17     56%   27 1023.7        
Feb 23 14:35 S 11 16.09 Mostly Cloudy BKN046 BKN060 27 17     54%   27 1024.1        
Feb 23 14:15 W 9 16.09 Cloudy OVC048 27 16     54%   27 1024.4        
Feb 23 13:55 SW 5 16.09 Mostly Cloudy BKN048 BKN060 27 17     54%   27 1024.7        
Feb 23 13:35 Calm 16.09 Partly Cloudy SCT055 SCT070 SCT080 26 16     55%   26 1024.7        
Feb 23 13:15 WSW 11 16.09 Partly Cloudy SCT042 SCT050 27 17     54%   28 1025.4        
Feb 23 12:55 SW 8 16.09 Mostly Cloudy BKN042 BKN050 BKN065 27 17     56%   27 1025.7        
Feb 23 12:35 SSW 11 16.09 Mostly Cloudy SCT042 BKN048 BKN060 27 17     55%   28 1026.1        
Feb 23 12:15 SSW 5 16.09 Cloudy SCT043 OVC065 27 17     55%   28 1026.4        
Feb 23 11:55 S 15 16.09 Cloudy SCT041 SCT050 OVC065 26 17     56%   26 1026.8        
Feb 23 11:35 SE 15 16.09 Mostly Cloudy BKN041 BKN065 26 16     56%   26 1027.4        
Feb 23 11:15 S 9 16.09 Partly Cloudy SCT037 SCT065 25 16     57%   25 1027.4        
Feb 23 10:55 SE 11 16.09 Partly Cloudy SCT065 25 16     59%   25 1027.8        
Feb 23 10:35 S 11 16.09 Partly Cloudy SCT065 24 16     61%   25 1028.1        
Feb 23 10:15 S 15 16.09 Mostly Cloudy BKN065 24 16     62%   24 1028.5        
Feb 23 09:55 S 11 16.09 Partly Cloudy SCT065 23 16     65%   23 1028.5        
Feb 23 09:35 Calm 16.09 Clear CLR 22 17     72%   22 1028.5        
Feb 23 09:15 Calm 16.09 Clear CLR 21 17     79%   21 1028.5        
Feb 23 08:55 ESE 5 16.09 Clear CLR 20 17     84%     1028.5        
Feb 23 08:35 Calm 16.09 Clear CLR 19 17     88%     1028.1        
Feb 23 08:15 Calm 16.09 Clear CLR 18 17     93%     1027.8        
Feb 23 07:55 Calm 11.27 Clear CLR 17 17     99%     1027.8        
Feb 23 07:35 Calm 11.27 Clear CLR 15 15     100%     1027.4        
Feb 23 07:15 Calm 11.27 Clear CLR 13 13     100%     1027.4        
Feb 23 06:55 Calm 11.27 Clear CLR 12 12     100%     1027.1        
Feb 23 06:35 Calm 16.09 Clear CLR 13 13     100%     1027.1        
Feb 23 06:15 Calm 11.27 Partly Cloudy SCT008 12 12     100%     1026.8        
Feb 23 05:55 Calm 6.44 Fog/Mist CLR 13 13     100%     1026.8        
Feb 23 05:35 Calm 16.09 Clear CLR 12 12     100%     1027.1        
Feb 23 05:15 Calm 11.27 Clear CLR 13 13     100%     1027.1        
Feb 23 04:55 Calm 6.44 Fog/Mist CLR 13 13     100%     1026.8        
Feb 23 04:35 Calm 4.02 Fog/Mist CLR 13 13     100%     1026.8        
Feb 23 04:15 Calm 8.05 Fog/Mist CLR 14 14     100%     1026.8        
Feb 23 03:55 Calm 4.83 Fog/Mist CLR 14 14     100%     1027.1        
Feb 23 03:35 Calm 11.27 Clear CLR 14 14     100%     1027.1        
Feb 23 03:15 Calm 8.05 Fog/Mist CLR 14 14     100%     1027.1        
Feb 23 02:55 Calm 11.27 Clear CLR 15 15     100%     1027.1        
Feb 23 02:35 Calm 11.27 Clear CLR 15 15     100%     1027.1        
Feb 23 02:15 Calm 11.27 Clear CLR 15 15     100%     1027.4        
Feb 23 01:55 Calm 16.09 Clear CLR 15 15     100%     1027.4        
Feb 23 01:35 Calm 8.05 Fog/Mist SCT050 16 16     100%     1027.4        
Feb 23 01:15 Calm 16.09 Mostly Cloudy BKN050 16 16     99%     1027.4        
Feb 23 00:55 Calm 16.09 Mostly Cloudy BKN050 16 16     100%     1027.4        
Feb 23 00:35 Calm 16.09 Mostly Cloudy BKN050 BKN060 16 16     100%     1027.4        
Feb 23 00:15 Calm 16.09 Partly Cloudy SCT050 16 16     100%     1027.4        
Feb 22 23:55 Calm 16.09 Mostly Cloudy SCT048 BKN050 16 16     99%     1027.8        
Feb 22 23:35 Calm 16.09 Mostly Cloudy BKN050 16 16     100%     1027.8        
Feb 22 23:15 Calm 16.09 Partly Cloudy SCT050 16 16     97%     1027.8        
Feb 22 22:55 Calm 16.09 Partly Cloudy SCT050 16 16     97%     1027.4        
Feb 22 22:35 Calm 16.09 Partly Cloudy SCT050 16 16     96%     1027.4        
Feb 22 22:15 Calm 16.09 Clear CLR 16 16     97%     1027.4        
Feb 22 21:55 Calm 16.09 Partly Cloudy SCT050 SCT065 17 16     95%     1027.4        
Feb 22 21:35 Calm 16.09 Partly Cloudy SCT055 17 17     96%     1027.4        
Feb 22 21:15 Calm 16.09 Partly Cloudy SCT055 SCT065 17 16     95%     1027.1        
Feb 22 20:55 Calm 16.09 Mostly Cloudy BKN055 18 16     93%     1027.1        
Feb 22 20:35 W 5 16.09 Mostly Cloudy BKN055 BKN065 18 16     92%     1027.1        
Feb 22 20:15 Calm 16.09 Partly Cloudy SCT055 18 17     89%     1026.8        
Feb 22 19:55 Calm 16.09 Clear CLR 19 17     89%     1026.8        
Feb 22 19:35 Calm 16.09 Partly Cloudy SCT060 19 17     89%     1026.8        
Feb 22 19:15 Calm 16.09 Partly Cloudy SCT060 20 17     87%     1026.8        
Feb 22 18:55 Calm 16.09 Partly Cloudy SCT055 SCT065 20 18     86%     1026.8        
Feb 22 18:35 Calm 16.09 Mostly Cloudy BKN055 BKN070 21 18     81%     1026.8        
Feb 22 18:15 WNW 5 16.09 Partly Cloudy SCT055 21 18     79%   22 1026.8        
Feb 22 17:55 Calm 16.09 Clear CLR 22 18     78%   22 1026.4        
Feb 22 17:35 Calm 16.09 Clear CLR 24 18     67%   25 1026.4        
Jun 12 07:15 ENE 5 16.09 Partly Cloudy SCT011 SCT019 23 22     95%   24 1020.7        
Jun 12 04:55 Calm 16.09 Clear CLR 21 21     100%     1019.7        
Notice The following observation data may not be complete
Jun 12 03:35   16.09 Clear CLR          %              
Jun 12 02:55 Calm 16.09 Clear CLR 22 22     100%   22 1019.7        
Jun 12 02:35 Calm 16.09 Partly Cloudy SCT080 22 22     100%   23 1019.7        
Jun 11 22:55 Calm 16.09 Partly Cloudy SCT100 24 23     92%   25 1020.3        
Notice The following observation data may not be complete
Jun 11 22:15   16.09 Clear CLR          %              
Jun 11 18:15 Calm 16.09 Clear CLR 27 22     75%   29 1018        
Jun 11 14:35 E 17 16.09 Partly Cloudy SCT050 SCT065 32 21     52%   35 1019        
Jun 11 11:55 SE 15 16.09 Partly Cloudy SCT038 30 21     59%   33 1020.3        
Jun 11 02:35 Calm 16.09 Partly Cloudy SCT055 SCT065 19 18     97%     1018        
Jun 10 18:35 SE 8 16.09 Partly Cloudy SCT080 29 18     51%   30 1016.3        
Jun 10 12:55 SSE 9 16.09 Partly Cloudy SCT055 SCT075 28 16     47%   29 1018.3        
Jun 10 11:15 S 8 16.09 Clear CLR 29 17     48%   29 1018.6        
Jun 10 08:15 Calm 16.09 Clear CLR 24 20     81%   24 1018        
Jun 10 03:55 Calm 16.09 Mostly Cloudy SCT065 BKN075 19 18     96%     1015.6        
Notice The following observation data may not be complete
Jun 09 22:35   16.09 Mostly Cloudy BKN060 BKN075          %              
Jun 09 16:55 Calm 16.09 Partly Cloudy SCT075 29 15     43%   29 1012.9        
Jun 09 06:15 Calm 16.09 Clear CLR 16 16     100%     1013.6        
Notice The following observation data may not be complete
Jun 09 02:35   16.09 Clear CLR          %              
Jun 08 13:55 Calm 16.09 Mostly Cloudy SCT060 SCT070 BKN080 26 15     50%   26 1011.9        
Jun 08 07:55 Calm 16.09 Partly Cloudy SCT002 21 16     75%     1012.5        
Jun 08 07:15 Calm 16.09 Clear CLR 18 15     82%     1012.5        
Jun 08 03:15 Calm 16.09 Mostly Cloudy BKN060 18 14     76%     1010.2        
Jun 07 22:35 N 5 16.09 Cloudy SCT060 OVC090 22 16     72%   22 1010.8        
Jun 07 15:15 Calm 16.09 Cloudy BKN039 BKN044 OVC085 27 20     68%   29 1007.8        
Jun 07 14:55 E 21 16.09 Mostly Cloudy SCT037 BKN043 BKN048 28 21     65%   30 1007.8        
Jun 07 10:55 ENE 15 16.09 Clear   26 20     67%   27 1008.1        
Jun 07 07:35 NNE 5 16.09 Clear CLR 21 19     89%     1008.1        
Notice The following observation data may not be complete
Jun 06 08:35   16.09 Cloudy OVC006          %              
Notice The following observation data may not be complete
Jun 06 06:35   16.09 Cloudy SCT006 BKN024 OVC110          %              
Jun 05 15:15 S 8 16.09 Partly Cloudy SCT033 SCT060 SCT100 24 22     90%   25 1008.8        
Jun 05 14:35 S 8 16.09 Light Rain BKN100 BKN120 24 22     89%   25 1009.5